World > North America > United States > Ohio

Dunkirk, Ohio Regional Weather

Lat: 40.79N, Lon: 83.64W
Wx Zone: OHZ026Web Search

If you are on your PC, you can easily pass this page to your phone by scanning the QR Code near the bottom with your camera.

Feedback


°F Click to change Dunkirk hourly weather to Imperial units.Click to change Dunkirk hourly weather to Metric units. °C
Dunkirk Weather Map
UTC Time: 5/18/2021, 11:45
Your Time:

Dunkirk, OH Regional Weather

Expires:202105181200;;306956
ASUS41 KCLE 181112
RWRCLE
OHIO REGIONAL WEATHER ROUNDUP
NATIONAL WEATHER SERVICE WILMINGTON, OH
700 AM EDT TUE MAY 18 2021

NOTE: "FAIR" INDICATES FEW OR NO CLOUDS BELOW 12,000 FEET WITH NO
SIGNIFICANT WEATHER AND/OR OBSTRUCTIONS TO VISIBILITY.


OHZ001>008-015>018-024>027-034-035-043-044-181200-
   NORTHWEST OHIO
  
CITY           SKY/WX    TMP DP  RH WIND       PRES   REMARKS
DEFIANCE       FAIR      53  50  89 CALM      30.30R FOG              
FINDLAY        FAIR      53  50  89 SE6       30.30R                  
TOLEDO EXPRESS FAIR      50  47  89 CALM      30.30R                  
TOLEDO EXEC    FAIR      52  49  89 CALM      30.31R                  
LIMA           FAIR      53  51  93 E6        30.30R FOG              
$$
 

SKY/WX - Weather  TMP - Temperature  DP - Dew Point  RH - Relative Humidity
WIND - Wind Direction/Speed PRES - Barometric Pressure VSB - Visibility
WCI - Wind Chill Index E13G22 Wind - East Wind 13 mph/Gusts of 22 mph